Terminal Aerodrome Forecast
Issued by NWS

Home | Current Version | Previous Version | Text Only | Print | Product List | Glossary On
Versions: 1 2 3 4 5 6 7 8 9 10 11 12 13 14 15 16 17 18 19 20 21 22 23 24 25 26 27 28
000
FTUS42 KJAX 021155 AAA
TAFVQQ
TAF AMD
KVQQ 021155Z 0212/0312 17007KT P6SM SCT018 BKN040
      TEMPO 0212/0216 4SM -SHRA BR BKN008 BKN018
     FM021600 20013KT P6SM VCSH SCT020 BKN060
     FM021900 21015G20KT P6SM VCTS BKN020CB
     FM030200 18010KT P6SM SCT020 SCT060=

USA.gov is the U.S. government's official web portal to all federal, state and local government web resources and services.